Home   Weather   Eisenhüttenstadt   Past weeks

Flag for Germany Past Weather in Eisenhüttenstadt, Brandenburg, Germany — Yesterday and Last 2 Weeks

54 °F

Low clouds.

Feels Like: 49 °F
Forecast: 47 / 53 °F
Wind: 14 mph from Southwest

Location: Zielona Gora Airport

Current Time: Oct 28, 2016 at 7:55:53 PM

Latest Report: Oct 28, 2016 at 7:30 PM

Visibility: 4 mi

Pressure: 30.30 "Hg

Humidity: 100%

Dew Point: 54 °F

Location of EisenhüttenstadtLocation

Past Weather in Eisenhüttenstadt — Graph


Eisenhüttenstadt Temperature Yesterday

Maximum temperature yesterday: 54 °F (at 1:30 PM)
Minimum temperature yesterday: 39 °F (at 5:30 AM)
Average temperature yesterday: 48 °F

High & Low Weather Summary for the Past Weeks

High55 °F (Oct 24, 1:30 PM)100% (Oct 14, 5:30 AM)30.48 "Hg (Oct 14, 5:30 AM)
Low34 °F (Oct 20, 5:30 AM)63% (Oct 14, 4:00 PM)29.92 "Hg (Oct 15, 6:30 AM)
Average47 °F93%30.14 "Hg
* Reported Oct 13 7:00 PM — Oct 28 7:00 PM, Eisenhüttenstadt, Weather by CustomWeather, © 2016

Note: Actual official high and low records may vary slightly from our data, if they occured in-between our weather recording intervals... More about our weather records


Eisenhüttenstadt Weather History for the Previous 24 Hours

Scroll right to see more
Time TempWeatherWind HumidityBarometerVisibility
7:00 PM
Fri, Oct 28
54 °FLow clouds.14 mph100%30.27 "Hg4 mi
6:30 PM52 °FDrizzle. Fog.13 mph100%30.30 "Hg2 mi
6:00 PM52 °FDrizzle. Fog.15 mph100%30.30 "Hg2 mi
5:30 PM52 °FDrizzle. Fog.16 mph100%30.27 "Hg2 mi
5:00 PM52 °FDrizzle. Fog.15 mph100%30.30 "Hg2 mi
4:30 PM52 °FDrizzle. Fog.16 mph100%30.30 "Hg2 mi
4:00 PM52 °FDrizzle. Fog.16 mph100%30.27 "Hg2 mi
3:30 PM52 °FLight rain. Fog.17 mph100%30.27 "Hg2 mi
3:00 PM52 °FLight rain. Fog.17 mph94%30.30 "Hg2 mi
2:30 PM52 °FCloudy.22 mph94%30.30 "Hg4 mi
2:00 PM54 °FLight rain. Overcast.16 mph88%30.30 "HgN/A
1:30 PM54 °FMostly cloudy.17 mph82%30.30 "HgN/A
1:00 PM54 °FPartly sunny.17 mph82%30.33 "HgN/A
12:30 PM52 °FMostly cloudy.16 mph88%30.30 "HgN/A
12:00 PM52 °FOvercast.15 mph88%30.33 "HgN/A
11:30 AM52 °FMostly cloudy.16 mph88%30.33 "HgN/A
11:00 AM52 °FLight rain. Overcast.14 mph88%30.33 "HgN/A
10:30 AM52 °FLight rain. Partly sunny.13 mph82%30.33 "HgN/A
10:00 AM50 °FLight rain. Partly sunny.14 mph88%30.33 "Hg6 mi
9:30 AM50 °FPartly sunny.13 mph88%30.33 "Hg6 mi
9:00 AM50 °FPartly sunny.14 mph88%30.36 "Hg5 mi
8:30 AM50 °FOvercast.13 mph88%30.36 "Hg4 mi
8:00 AM50 °FOvercast.12 mph88%30.36 "Hg4 mi
7:30 AM48 °FPassing clouds.12 mph100%30.36 "Hg4 mi
7:00 AM50 °FFog.13 mph94%30.36 "Hg3 mi
6:30 AM50 °FFog.12 mph94%30.36 "Hg3 mi
6:00 AM48 °FFog.8 mph100%30.39 "Hg2 mi
5:30 AM48 °FFog.6 mph100%30.39 "Hg1 mi
10:00 PM
Thu, Oct 27
50 °FFog.6 mph100%30.48 "Hg2 mi
9:30 PM50 °FFog.7 mph100%30.48 "Hg2 mi
9:00 PM50 °FFog.8 mph100%30.48 "Hg2 mi
8:30 PM50 °FFog.8 mph100%30.48 "Hg2 mi
8:00 PM50 °FFog.8 mph94%30.48 "Hg2 mi
7:30 PM50 °FFog.8 mph94%30.45 "Hg3 mi
7:00 PM50 °FFog.8 mph94%30.45 "Hg3 mi
Weather by CustomWeather, © 2016

See weather overviewHow to use our weather pages